[[{"header":{"parameterUnit":"m.s-1","parameterCategory":1,"la1":30.2991,"la2":30.254,"lo1":-89.0895,"lo2":-89.0444,"dy":0.0017,"dx":0.0017,"nx":28,"ny":28,"refTime":"2024-11-30T03:00:00:Z","depth":0,"parameterNumber":2,"parameterNumberName":"U-component_of_WINDS"},"data":[0,0,0,0,0,0,0,0,0,0,0,0,0,0,0,0,0,0,0,0,0,0,0,0,0,0,0,0,0,0,0,0,0,0,0,0,0,0,0,0,0,0,0,0,0,0,0,0,0,0,0,0,0,0,0,0,0,0,-3.909,-3.909,0,-3.9105,-3.9105,-3.9105,-3.9004,-3.9001,-3.8998,-3.8995,-3.9013,-3.9016,-3.9019,0,0,0,0,0,0,0,0,0,0,0,0,0,-3.8977,-3.8979,-3.909,-3.909,-3.909,-3.9105,-3.9105,-3.9105,-3.9004,-3.9001,-3.8997,-3.8994,-3.9012,-3.9016,-3.902,0,0,0,0,0,0,0,0,0,0,0,0,0,-3.9012,-3.898,-3.909,-3.9042,-3.9037,-3.9105,-3.9105,-3.9105,-3.9005,-3.9001,-3.8996,-3.8992,-3.9011,-3.9016,-3.902,-3.9136,0,0,-3.9035,-3.9037,0,0,0,0,0,0,0,0,-3.9011,-3.9017,-3.9049,-3.9045,-3.9041,-3.9048,-3.9072,-3.9116,-3.9006,-3.9017,-3.8995,-3.899,-3.9028,-3.9031,-3.9044,-3.9136,-3.9137,-3.9035,-3.9038,-3.904,-3.9041,0,0,0,0,0,0,0,-3.9008,-3.9016,-3.9096,-3.9049,-3.9044,-3.902,-3.902,-3.908,-3.9047,-3.9016,-3.9009,-3.9012,-3.9025,-3.904,-3.9043,-3.9137,-3.9035,-3.9039,-3.9042,-3.9044,-3.9327,-3.9332,0,0,0,0,0,0,-3.9012,-3.9014,-3.9095,-3.9096,-3.9015,-3.9026,-3.9026,-3.905,-3.9046,-3.9041,-3.9015,-3.9007,-3.9034,-3.9038,-3.9044,-3.918,-3.904,-3.9044,-3.9047,-3.9323,-3.9328,-3.9334,0,0,0,0,0,0,-3.901,-3.902,-3.9095,-3.9053,-3.9061,-3.9032,-3.906,-3.9053,-3.9066,-3.9045,-3.9039,-3.9036,-3.903,-3.9037,-3.9114,-3.9179,-3.9046,-3.9051,-3.9317,-3.9325,-3.9331,-3.9453,0,0,0,0,0,0,-3.9007,-3.902,-3.9063,-3.9055,-3.9064,-3.9164,-3.9064,-3.9056,-3.9075,-3.9064,-3.9063,-3.9059,-3.9027,-3.9107,-3.9119,-3.9183,-3.9054,-3.9311,-3.9321,-3.9329,-3.9443,-3.9464,-3.9481,0,0,0,0,0,-3.9003,-3.9097,-3.9065,-3.9076,-3.9116,-3.9168,-3.9173,-3.9135,-3.908,-3.9124,-3.911,-3.9059,-3.917,-3.9116,-3.9128,-3.9195,-3.9307,-3.9318,-3.9328,-3.9435,-3.946,-3.9481,0,0,0,0,0,0,-3.9114,-3.9095,-3.906,-3.9153,-3.9163,-3.9151,-3.9204,-3.9162,-3.9188,-3.9177,-3.9128,-3.9129,-3.9215,-3.9212,-3.9152,-3.9308,-3.9229,-3.9243,-3.9306,-3.933,-3.9348,-3.9348,-3.9058,0,0,0,0,0,-3.9149,-3.9191,-3.9173,-3.9257,-3.9264,-3.9234,-3.9255,-3.9224,-3.9233,-3.9236,-3.9228,-3.924,-3.9277,-3.9303,-3.9336,-3.9442,-3.9442,-3.9494,-3.9513,-3.9529,-3.9542,-3.96,-3.9623,-3.9368,-3.9368,-3.9368,0,0,-3.9222,-3.9217,-3.9247,-3.9279,-3.9283,-3.933,-3.9238,-3.929,-3.9325,-3.9245,-3.9317,-3.9312,-3.9321,-3.9413,-3.9454,-3.9414,-3.9612,-3.9542,-3.9555,-3.9559,-3.9613,-3.9637,-3.9659,-3.9375,-3.9374,-3.9373,0,0,-3.938,-3.9379,-3.945,-3.9456,-3.9463,-3.9443,-3.946,-3.9454,-3.9448,-3.9519,-3.946,-3.9501,-3.9566,-3.9576,-3.9589,-3.9751,-3.9706,-3.9763,-3.9863,-3.992,-3.994,-3.9958,-4.0018,-4.004,-3.9776,-3.9776,-3.9776,0,-3.947,-3.9537,-3.9493,-3.955,-3.9567,-3.9495,-3.9568,-3.9576,-3.9594,-3.9608,-3.9562,-3.9644,-3.9645,-3.9739,-3.9779,-3.9792,-3.9811,-3.9764,-3.9941,-3.9958,-3.9974,-4.0031,-4.0053,-3.9783,-3.9783,-3.9782,-3.9781,0,-3.9649,-3.9697,-3.9754,-3.9773,-3.9795,-3.986,-3.9827,-3.9855,-3.9823,-3.9808,-3.9883,-3.9881,-3.9914,-3.9933,-3.9902,-4.0025,-4.0,-3.9949,-3.9869,-4.0006,-4.0059,-4.008,-3.9794,-3.9791,-3.9789,-3.9787,0,0,-3.9878,-3.9871,-3.9893,-3.9902,-3.9904,-3.9941,-4.0003,-4.0034,-4.0061,-4.0076,-4.0128,-4.0185,-4.0138,-4.0153,-4.0122,-4.0172,-4.0304,-4.0115,-4.0114,-4.0152,-4.0441,-4.0482,-4.0508,-4.0273,-4.0277,-4.028,-4.0441,0,-4.0034,-4.0139,-4.0101,-4.0209,-4.0254,-4.0187,-4.0241,-4.0249,-4.0237,-4.0273,-4.0259,-4.0302,-4.0235,-4.0244,-4.029,-4.0278,-4.0362,-4.0266,-4.0323,-4.0326,-4.0325,-4.0535,-4.0577,-4.073,-4.0461,-4.0465,-4.0467,0,-4.0229,-4.0252,-4.0365,-4.0362,-4.0379,-4.0428,-4.0455,-4.049,-4.0499,-4.0486,-4.0504,-4.0463,-4.0525,-4.0444,-4.053,-4.0466,-4.0487,-4.0485,-4.049,-4.0495,-4.0406,-4.0548,-4.0777,-4.0801,-4.0499,-4.0496,-4.0494,0,-4.0388,-4.0447,-4.0522,-4.0531,-4.0528,-4.0565,-4.0566,-4.057,-4.0591,-4.0615,-4.0629,-4.0659,-4.0676,-4.0702,-4.0671,-4.0614,-4.0762,-4.0678,-4.0756,-4.0757,-4.0791,-4.079,-4.103,-4.0802,-4.0801,-4.0801,-4.08,0,-4.0567,-4.064,-4.0593,-4.064,-4.072,-4.0676,-4.0756,-4.0749,-4.0754,-4.0799,-4.0742,-4.0786,-4.0741,-4.0781,-4.0757,-4.0834,-4.0841,-4.0835,-4.0828,-4.0841,-4.0842,-4.0856,-4.0845,-4.0807,-4.0805,-4.0804,-4.0803,0,-4.0758,-4.073,-4.0808,-4.0799,-4.0799,-4.0858,-4.085,-4.0894,-4.0877,-4.0936,-4.0947,-4.0921,-4.0966,-4.0936,-4.0981,-4.0965,-4.1066,-4.1043,-4.1063,-4.1058,-4.1138,-4.1132,-4.1396,-4.143,-4.1178,-4.1181,-4.1183,0,-4.0876,-4.093,-4.0927,-4.0953,-4.0957,-4.0999,-4.1021,-4.098,-4.1006,-4.102,-4.1063,-4.1102,-4.1132,-4.1206,-4.1193,-4.1227,-4.1206,-4.1297,-4.1211,-4.1224,-4.1211,-4.1209,-4.1215,-4.1315,-4.1318,-4.132,-4.1322,0,-4.1088,-4.1072,-4.1105,-4.1134,-4.1162,-4.1183,-4.12,-4.1224,-4.1183,-4.1215,-4.1259,-4.1283,-4.1328,-4.1369,-4.1398,-4.14,-4.1356,-4.1349,-4.1369,-4.1384,-4.1395,-4.1393,-4.1113,-4.1343,-4.1341,-4.134,-4.1338,-4.1338,-4.1247,-4.1293,-4.1298,-4.1338,-4.1346,-4.1363,-4.1404,-4.1393,-4.1429,-4.1463,-4.1436,-4.149,-4.1499,-4.1533,-4.1541,-4.1583,-4.1547,-4.1575,-4.1583,-4.1591,-4.1604,-4.1386,-4.1588,-4.1587,-4.1587,-4.1586,-4.1586,0,-4.1459,-4.1459,-4.1495,-4.1521,-4.1552,-4.1506,-4.1522,-4.1552,-4.16,-4.1611,-4.1642,-4.1694,-4.1734,-4.1723,-4.1759,-4.1795,-4.1776,-4.1806,-4.1805,-4.1806,-4.1633,-4.1613,-4.1822,-4.1822,-4.1821,-4.1821,-4.1821,-4.1821,-4.1573,-4.1648,-4.1633,-4.1712,-4.1711,-4.1764,-4.1777,-4.1793,-4.1802,-4.1863,-4.1896,-4.1888,-4.1891,-4.1927,-4.1962,-4.1958,-4.1975,-4.2013,-4.2002,-4.1841,-4.1818,-4.1796,-4.1777,-4.2017,-4.2017,-4.2172,-4.2174,-4.2175]},{"header":{"parameterUnit":"m.s-1","parameterCategory":1,"la1":30.2991,"la2":30.254,"lo1":-89.0895,"lo2":-89.0444,"dy":0.0017,"dx":0.0017,"nx":28,"ny":28,"refTime":"2024-11-30T03:00:00:Z","depth":0,"parameterNumber":3,"parameterNumberName":"V-component_of_WINDS"},"data":[0,0,0,0,0,0,0,0,0,0,0,0,0,0,0,0,0,0,0,0,0,0,0,0,0,0,0,0,0,0,0,0,0,0,0,0,0,0,0,0,0,0,0,0,0,0,0,0,0,0,0,0,0,0,0,0,0,0,-2.1233,-2.1234,0,-2.1274,-2.1274,-2.1275,-2.1261,-2.1261,-2.126,-2.1259,-2.1299,-2.13,-2.1302,0,0,0,0,0,0,0,0,0,0,0,0,0,-2.1142,-2.1143,-2.1233,-2.1234,-2.1234,-2.1274,-2.1274,-2.1275,-2.1262,-2.1261,-2.1259,-2.1258,-2.1298,-2.13,-2.1302,0,0,0,0,0,0,0,0,0,0,0,0,0,-2.1182,-2.1144,-2.1233,-2.1232,-2.1233,-2.1274,-2.1274,-2.1275,-2.1262,-2.126,-2.1259,-2.1258,-2.1297,-2.13,-2.1303,-2.1346,0,0,-2.1311,-2.1313,0,0,0,0,0,0,0,0,-2.1179,-2.1185,-2.1232,-2.1233,-2.1233,-2.1261,-2.1257,-2.1299,-2.1262,-2.1251,-2.1259,-2.1257,-2.1287,-2.1291,-2.1301,-2.1348,-2.135,-2.1312,-2.1313,-2.1315,-2.1315,0,0,0,0,0,0,0,-2.1177,-2.1183,-2.1249,-2.1233,-2.1233,-2.1229,-2.1233,-2.1265,-2.1276,-2.1252,-2.1251,-2.1256,-2.1287,-2.1298,-2.1302,-2.135,-2.1312,-2.1314,-2.1316,-2.1317,-2.1434,-2.1436,0,0,0,0,0,0,-2.1174,-2.1181,-2.1248,-2.125,-2.1202,-2.1232,-2.1237,-2.1253,-2.1275,-2.1277,-2.1257,-2.1255,-2.1294,-2.1299,-2.1303,-2.1356,-2.1315,-2.1317,-2.1319,-2.1433,-2.1435,-2.1436,0,0,0,0,0,0,-2.1172,-2.118,-2.1246,-2.1216,-2.1224,-2.1235,-2.1254,-2.1255,-2.1266,-2.1279,-2.1281,-2.1267,-2.1293,-2.1299,-2.1336,-2.1357,-2.1318,-2.1321,-2.1431,-2.1434,-2.1436,-2.146,0,0,0,0,0,0,-2.1169,-2.1179,-2.1197,-2.1216,-2.1225,-2.1279,-2.1255,-2.1257,-2.1271,-2.1269,-2.1289,-2.1291,-2.1293,-2.1332,-2.1338,-2.136,-2.1323,-2.143,-2.1432,-2.1435,-2.1458,-2.1463,-2.1468,0,0,0,0,0,-2.1166,-2.1202,-2.1198,-2.1206,-2.1247,-2.128,-2.1285,-2.1287,-2.1273,-2.129,-2.1298,-2.129,-2.1353,-2.1335,-2.1343,-2.1366,-2.1428,-2.1432,-2.1435,-2.1456,-2.1462,-2.1468,0,0,0,0,0,0,-2.1184,-2.1204,-2.12,-2.1243,-2.126,-2.1278,-2.1299,-2.1294,-2.1315,-2.1312,-2.1313,-2.1318,-2.1355,-2.1364,-2.1344,-2.1408,-2.1388,-2.1393,-2.1402,-2.1408,-2.1413,-2.141,-2.1325,0,0,0,0,0,-2.1193,-2.1219,-2.1235,-2.1271,-2.128,-2.1288,-2.1303,-2.1303,-2.132,-2.1327,-2.1338,-2.1354,-2.1378,-2.1393,-2.1416,-2.1459,-2.1462,-2.1478,-2.1483,-2.1487,-2.1491,-2.1514,-2.1521,-2.1447,-2.1447,-2.1447,0,0,-2.1212,-2.1226,-2.1242,-2.1275,-2.1288,-2.1314,-2.1294,-2.1323,-2.1341,-2.1331,-2.1366,-2.1375,-2.1393,-2.1433,-2.1451,-2.1441,-2.1512,-2.1491,-2.1494,-2.1496,-2.1518,-2.1525,-2.1531,-2.1449,-2.1449,-2.1448,0,0,-2.126,-2.1273,-2.1305,-2.1318,-2.1339,-2.1344,-2.1351,-2.137,-2.1375,-2.1411,-2.1403,-2.1425,-2.1466,-2.1479,-2.1491,-2.1543,-2.1536,-2.155,-2.1576,-2.1599,-2.1605,-2.161,-2.1628,-2.1635,-2.1554,-2.1554,-2.1554,0,-2.128,-2.132,-2.1322,-2.1351,-2.1365,-2.1357,-2.1388,-2.1401,-2.1428,-2.1437,-2.1426,-2.1476,-2.1488,-2.1531,-2.1544,-2.1554,-2.1562,-2.1548,-2.1604,-2.1609,-2.1614,-2.1631,-2.1638,-2.1556,-2.1556,-2.1556,-2.1555,0,-2.1344,-2.1371,-2.1394,-2.1421,-2.1437,-2.1467,-2.1473,-2.149,-2.1488,-2.1494,-2.153,-2.1544,-2.1568,-2.1578,-2.1577,-2.1621,-2.1614,-2.1603,-2.1583,-2.1622,-2.1639,-2.1646,-2.1558,-2.1558,-2.1557,-2.1557,0,0,-2.1405,-2.1431,-2.144,-2.1451,-2.1473,-2.1494,-2.1523,-2.1547,-2.1562,-2.158,-2.1604,-2.1638,-2.1628,-2.1642,-2.1641,-2.1661,-2.1701,-2.1648,-2.1648,-2.1657,-2.175,-2.1758,-2.1766,-2.1696,-2.1698,-2.1699,-2.1748,0,-2.1454,-2.1507,-2.1509,-2.1556,-2.1581,-2.1573,-2.1599,-2.1614,-2.162,-2.1642,-2.1648,-2.1672,-2.1657,-2.1666,-2.1685,-2.1692,-2.172,-2.1689,-2.1718,-2.1719,-2.1714,-2.1774,-2.1783,-2.1829,-2.1755,-2.1756,-2.1756,0,-2.1519,-2.154,-2.159,-2.1607,-2.1618,-2.1641,-2.1663,-2.1684,-2.1701,-2.1704,-2.1719,-2.1716,-2.1745,-2.1723,-2.1763,-2.1742,-2.1754,-2.176,-2.1761,-2.1764,-2.1741,-2.1779,-2.1844,-2.1851,-2.1767,-2.1766,-2.1765,0,-2.1558,-2.1599,-2.1634,-2.1644,-2.1665,-2.1681,-2.1691,-2.1706,-2.1721,-2.174,-2.175,-2.1772,-2.1784,-2.1801,-2.1804,-2.1788,-2.1843,-2.1822,-2.1846,-2.1846,-2.1859,-2.1858,-2.1927,-2.1866,-2.1866,-2.1866,-2.1866,0,-2.1614,-2.1644,-2.1652,-2.1673,-2.1707,-2.1709,-2.1742,-2.175,-2.1764,-2.1787,-2.1781,-2.1802,-2.1804,-2.1825,-2.1827,-2.186,-2.1865,-2.1868,-2.1868,-2.1869,-2.1868,-2.1877,-2.1874,-2.1868,-2.1867,-2.1867,-2.1867,0,-2.1663,-2.167,-2.1707,-2.1724,-2.1729,-2.1754,-2.1768,-2.1788,-2.1793,-2.1822,-2.1828,-2.1837,-2.1861,-2.1866,-2.1895,-2.1896,-2.1935,-2.1931,-2.1929,-2.1929,-2.1953,-2.195,-2.203,-2.204,-2.1972,-2.1973,-2.1974,0,-2.1698,-2.1722,-2.1742,-2.1757,-2.1767,-2.1791,-2.1806,-2.1808,-2.1824,-2.1844,-2.1862,-2.1886,-2.1906,-2.1946,-2.1954,-2.1976,-2.1973,-2.1999,-2.1976,-2.1976,-2.1973,-2.1972,-2.1974,-2.2004,-2.2004,-2.2005,-2.2006,0,-2.176,-2.1762,-2.1784,-2.1807,-2.1825,-2.1843,-2.186,-2.1872,-2.1876,-2.1894,-2.192,-2.1935,-2.1964,-2.1988,-2.201,-2.2019,-2.2013,-2.2013,-2.2019,-2.202,-2.2018,-2.202,-2.1941,-2.2011,-2.201,-2.201,-2.201,-2.2009,-2.1803,-2.1824,-2.1841,-2.1866,-2.1879,-2.1895,-2.1914,-2.1922,-2.1944,-2.1969,-2.1968,-2.1996,-2.2011,-2.204,-2.205,-2.2072,-2.2063,-2.2073,-2.2075,-2.2078,-2.208,-2.2014,-2.2076,-2.2075,-2.2075,-2.2075,-2.2075,0,-2.1864,-2.1875,-2.1898,-2.1922,-2.1941,-2.1934,-2.1952,-2.1968,-2.1993,-2.2009,-2.2028,-2.2057,-2.208,-2.209,-2.2112,-2.2128,-2.2125,-2.2133,-2.2132,-2.2134,-2.2087,-2.2079,-2.2135,-2.2135,-2.2135,-2.2135,-2.2135,-2.2135,-2.1898,-2.1933,-2.1936,-2.1977,-2.1987,-2.2015,-2.2026,-2.204,-2.2052,-2.2085,-2.2105,-2.2111,-2.2124,-2.2147,-2.2168,-2.217,-2.2178,-2.2188,-2.2189,-2.2144,-2.2138,-2.2132,-2.2125,-2.219,-2.219,-2.2235,-2.2235,-2.2235]}]]